iso_date,Year,Hour,Min,DOY,POS_DOY,Lat,Lon,BP,Ts,Ta,has_bp,has_ts,has_ta,BuoyID,Buoy_Type,Buoy_Owner,Logistics,Hemisphere
2022-07-27T16:31:00Z,2022,16,31,208.6882,208.6882,81.3573,1.1069,1005.7,1.21,-999.0,yes,yes,no,300534062835800,GPS_Tracker,AWI,Polarstern,North
2022-07-27T16:59:57Z,2022,17,0,208.7083,208.7083,81.355,1.0962,1005.8,1.26,-999.0,yes,yes,no,300534062835800,GPS_Tracker,AWI,Polarstern,North
2022-07-27T18:00:00Z,2022,18,0,208.75,208.75,81.3499,1.0761,1005.3,1.08,-999.0,yes,yes,no,300534062835800,GPS_Tracker,AWI,Polarstern,North
2022-07-27T19:00:02Z,2022,19,0,208.7917,208.7917,81.3403,1.1395,1005.1,0.76,-999.0,yes,yes,no,300534062835800,GPS_Tracker,AWI,Polarstern,North
2022-07-27T19:59:57Z,2022,20,0,208.8333,208.8333,81.3638,1.4532,1004.6,0.88,-999.0,yes,yes,no,300534062835800,GPS_Tracker,AWI,Polarstern,North
2022-07-27T21:00:00Z,2022,21,0,208.875,208.875,81.3627,1.4286,1004.4,0.93,-999.0,yes,yes,no,300534062835800,GPS_Tracker,AWI,Polarstern,North
2022-07-27T22:00:02Z,2022,22,0,208.9167,208.9167,81.3584,1.4103,1004.1,0.83,-999.0,yes,yes,no,300534062835800,GPS_Tracker,AWI,Polarstern,North
2022-07-27T22:59:57Z,2022,23,0,208.9583,208.9583,81.3551,1.3936,1003.9,0.8,-999.0,yes,yes,no,300534062835800,GPS_Tracker,AWI,Polarstern,North
2022-07-28T00:00:00Z,2022,0,0,209.0,209.0,81.3535,1.3795,1003.7,0.77,-999.0,yes,yes,no,300534062835800,GPS_Tracker,AWI,Polarstern,North
2022-07-28T01:00:02Z,2022,1,0,209.0417,209.0417,81.353,1.3694,1003.5,0.79,-999.0,yes,yes,no,300534062835800,GPS_Tracker,AWI,Polarstern,North
2022-07-28T01:59:57Z,2022,2,0,209.0833,209.0833,81.3531,1.3651,1003.3,0.79,-999.0,yes,yes,no,300534062835800,GPS_Tracker,AWI,Polarstern,North
2022-07-28T03:00:00Z,2022,3,0,209.125,209.125,81.3539,1.3673,1003.1,0.8,-999.0,yes,yes,no,300534062835800,GPS_Tracker,AWI,Polarstern,North
2022-07-28T04:00:02Z,2022,4,0,209.1667,209.1667,81.3541,1.3719,1002.9,0.88,-999.0,yes,yes,no,300534062835800,GPS_Tracker,AWI,Polarstern,North
2022-07-28T04:59:57Z,2022,5,0,209.2083,209.2083,81.3535,1.3773,1002.8,0.84,-999.0,yes,yes,no,300534062835800,GPS_Tracker,AWI,Polarstern,North
2022-07-28T06:00:00Z,2022,6,0,209.25,209.25,81.3518,1.381,1002.7,0.86,-999.0,yes,yes,no,300534062835800,GPS_Tracker,AWI,Polarstern,North
2022-07-28T07:00:02Z,2022,7,0,209.2917,209.2917,81.349,1.381,1002.6,0.86,-999.0,yes,yes,no,300534062835800,GPS_Tracker,AWI,Polarstern,North
2022-07-28T07:59:57Z,2022,8,0,209.3333,209.3333,81.3451,1.3757,1002.5,0.87,-999.0,yes,yes,no,300534062835800,GPS_Tracker,AWI,Polarstern,North
2022-07-28T09:00:00Z,2022,9,0,209.375,209.375,81.3406,1.3649,1002.5,0.9,-999.0,yes,yes,no,300534062835800,GPS_Tracker,AWI,Polarstern,North
2022-07-28T10:00:02Z,2022,10,0,209.4167,209.4167,81.3361,1.349,1002.5,0.93,-999.0,yes,yes,no,300534062835800,GPS_Tracker,AWI,Polarstern,North
2022-07-28T10:59:57Z,2022,11,0,209.4583,209.4583,81.3325,1.3303,1002.5,0.96,-999.0,yes,yes,no,300534062835800,GPS_Tracker,AWI,Polarstern,North
2022-07-28T12:00:00Z,2022,12,0,209.5,209.5,81.3294,1.3108,1002.4,0.93,-999.0,yes,yes,no,300534062835800,GPS_Tracker,AWI,Polarstern,North
2022-07-28T13:00:02Z,2022,13,0,209.5417,209.5417,81.3274,1.2882,1002.5,0.95,-999.0,yes,yes,no,300534062835800,GPS_Tracker,AWI,Polarstern,North
2022-07-28T13:59:57Z,2022,14,0,209.5833,209.5833,81.326,1.2684,1002.6,1.0,-999.0,yes,yes,no,300534062835800,GPS_Tracker,AWI,Polarstern,North
2022-07-28T15:00:00Z,2022,15,0,209.625,209.625,81.3252,1.2507,1002.7,1.04,-999.0,yes,yes,no,300534062835800,GPS_Tracker,AWI,Polarstern,North
2022-07-28T16:00:02Z,2022,16,0,209.6667,209.6667,81.3243,1.2344,1002.7,1.02,-999.0,yes,yes,no,300534062835800,GPS_Tracker,AWI,Polarstern,North
2022-07-28T16:59:57Z,2022,17,0,209.7083,209.7083,81.3225,1.2187,1002.7,1.17,-999.0,yes,yes,no,300534062835800,GPS_Tracker,AWI,Polarstern,North
2022-07-28T18:00:00Z,2022,18,0,209.75,209.75,81.32,1.2049,1002.9,1.09,-999.0,yes,yes,no,300534062835800,GPS_Tracker,AWI,Polarstern,North
2022-07-28T19:00:02Z,2022,19,0,209.7917,209.7917,81.3171,1.1917,1003.1,1.02,-999.0,yes,yes,no,300534062835800,GPS_Tracker,AWI,Polarstern,North
2022-07-28T19:59:57Z,2022,20,0,209.8333,209.8333,81.3138,1.18,1003.2,0.98,-999.0,yes,yes,no,300534062835800,GPS_Tracker,AWI,Polarstern,North
2022-07-28T21:00:00Z,2022,21,0,209.875,209.875,81.3105,1.1686,1003.4,1.03,-999.0,yes,yes,no,300534062835800,GPS_Tracker,AWI,Polarstern,North
2022-07-28T22:00:02Z,2022,22,0,209.9167,209.9167,81.3078,1.1592,1003.7,1.07,-999.0,yes,yes,no,300534062835800,GPS_Tracker,AWI,Polarstern,North
2022-07-28T22:59:57Z,2022,23,0,209.9583,209.9583,81.3364,1.3019,1003.7,0.98,-999.0,yes,yes,no,300534062835800,GPS_Tracker,AWI,Polarstern,North
2022-07-29T00:00:00Z,2022,0,0,210.0,210.0,81.3325,1.6869,1004.0,0.95,-999.0,yes,yes,no,300534062835800,GPS_Tracker,AWI,Polarstern,North
2022-07-29T01:00:02Z,2022,1,0,210.0417,210.0417,81.3094,2.1842,1004.0,0.92,-999.0,yes,yes,no,300534062835800,GPS_Tracker,AWI,Polarstern,North
2022-07-29T01:59:57Z,2022,2,0,210.0833,210.0833,81.3242,2.6898,1004.1,0.95,-999.0,yes,yes,no,300534062835800,GPS_Tracker,AWI,Polarstern,North
2022-07-29T03:00:00Z,2022,3,0,210.125,210.125,81.3271,3.2271,1004.1,1.0,-999.0,yes,yes,no,300534062835800,GPS_Tracker,AWI,Polarstern,North
2022-07-29T04:00:02Z,2022,4,0,210.1667,210.1667,81.3165,3.1252,1004.0,1.08,-999.0,yes,yes,no,300534062835800,GPS_Tracker,AWI,Polarstern,North
2022-07-29T04:59:57Z,2022,5,0,210.2083,210.2083,81.3154,3.1613,1004.2,1.07,-999.0,yes,yes,no,300534062835800,GPS_Tracker,AWI,Polarstern,North
2022-07-29T06:00:00Z,2022,6,0,210.25,210.25,81.2884,3.0803,1004.5,1.15,-999.0,yes,yes,no,300534062835800,GPS_Tracker,AWI,Polarstern,North
2022-07-29T07:00:02Z,2022,7,0,210.2917,210.2917,81.2368,2.8119,1004.7,1.17,-999.0,yes,yes,no,300534062835800,GPS_Tracker,AWI,Polarstern,North
2022-07-29T07:59:57Z,2022,8,0,210.3333,210.3333,81.2125,2.7637,1005.0,1.36,-999.0,yes,yes,no,300534062835800,GPS_Tracker,AWI,Polarstern,North
2022-07-29T09:00:00Z,2022,9,0,210.375,210.375,81.1332,2.9701,1005.4,1.55,-999.0,yes,yes,no,300534062835800,GPS_Tracker,AWI,Polarstern,North
2022-07-29T10:00:02Z,2022,10,0,210.4167,210.4167,81.0508,3.3017,1005.7,1.62,-999.0,yes,yes,no,300534062835800,GPS_Tracker,AWI,Polarstern,North
2022-07-29T10:59:57Z,2022,11,0,210.4583,210.4583,80.9718,3.6101,1006.1,1.71,-999.0,yes,yes,no,300534062835800,GPS_Tracker,AWI,Polarstern,North
2022-07-29T12:00:00Z,2022,12,0,210.5,210.5,80.9717,3.5962,1006.4,1.56,-999.0,yes,yes,no,300534062835800,GPS_Tracker,AWI,Polarstern,North
2022-07-29T13:00:02Z,2022,13,0,210.5417,210.5417,81.0602,3.2477,1006.6,1.76,-999.0,yes,yes,no,300534062835800,GPS_Tracker,AWI,Polarstern,North
2022-07-29T13:59:57Z,2022,14,0,210.5833,210.5833,81.0759,3.1795,1006.8,1.79,-999.0,yes,yes,no,300534062835800,GPS_Tracker,AWI,Polarstern,North
2022-07-29T15:00:00Z,2022,15,0,210.625,210.625,81.0766,3.1573,1007.0,1.75,-999.0,yes,yes,no,300534062835800,GPS_Tracker,AWI,Polarstern,North
2022-07-29T16:00:02Z,2022,16,0,210.6667,210.6667,81.0788,3.1435,1007.3,1.77,-999.0,yes,yes,no,300534062835800,GPS_Tracker,AWI,Polarstern,North
2022-07-29T16:59:57Z,2022,17,0,210.7083,210.7083,81.0798,3.1261,1007.5,1.79,-999.0,yes,yes,no,300534062835800,GPS_Tracker,AWI,Polarstern,North
2022-07-29T18:00:00Z,2022,18,0,210.75,210.75,81.0803,3.1184,1007.9,1.76,-999.0,yes,yes,no,300534062835800,GPS_Tracker,AWI,Polarstern,North
2022-07-29T19:00:02Z,2022,19,0,210.7917,210.7917,81.0808,3.1102,1008.0,1.69,-999.0,yes,yes,no,300534062835800,GPS_Tracker,AWI,Polarstern,North
2022-07-29T19:59:57Z,2022,20,0,210.8333,210.8333,81.0862,3.0984,1008.5,1.55,-999.0,yes,yes,no,300534062835800,GPS_Tracker,AWI,Polarstern,North
2022-07-29T21:00:00Z,2022,21,0,210.875,210.875,81.0867,3.0978,1008.7,1.39,-999.0,yes,yes,no,300534062835800,GPS_Tracker,AWI,Polarstern,North
2022-07-29T22:00:02Z,2022,22,0,210.9167,210.9167,81.157,2.9033,1009.1,1.32,-999.0,yes,yes,no,300534062835800,GPS_Tracker,AWI,Polarstern,North
2022-07-29T22:59:57Z,2022,23,0,210.9583,210.9583,81.1548,2.9136,1009.2,1.43,-999.0,yes,yes,no,300534062835800,GPS_Tracker,AWI,Polarstern,North
2022-07-30T00:00:00Z,2022,0,0,211.0,211.0,81.1555,2.9386,1009.5,1.3,-999.0,yes,yes,no,300534062835800,GPS_Tracker,AWI,Polarstern,North
2022-07-30T01:00:02Z,2022,1,0,211.0417,211.0417,81.1587,2.9678,1009.8,1.24,-999.0,yes,yes,no,300534062835800,GPS_Tracker,AWI,Polarstern,North
2022-07-30T01:59:57Z,2022,2,0,211.0833,211.0833,81.1621,3.0099,1009.9,1.12,-999.0,yes,yes,no,300534062835800,GPS_Tracker,AWI,Polarstern,North
2022-07-30T03:00:00Z,2022,3,0,211.125,211.125,81.1652,2.9506,1010.1,1.11,-999.0,yes,yes,no,300534062835800,GPS_Tracker,AWI,Polarstern,North
2022-07-30T04:00:02Z,2022,4,0,211.1667,211.1667,81.1896,2.4615,1010.1,1.13,-999.0,yes,yes,no,300534062835800,GPS_Tracker,AWI,Polarstern,North
2022-07-30T04:59:57Z,2022,5,0,211.2083,211.2083,81.1916,2.4888,1010.3,1.47,-999.0,yes,yes,no,300534062835800,GPS_Tracker,AWI,Polarstern,North
2022-07-30T06:00:00Z,2022,6,0,211.25,211.25,81.198,2.3878,1010.4,1.57,-999.0,yes,yes,no,300534062835800,GPS_Tracker,AWI,Polarstern,North
2022-07-30T07:00:02Z,2022,7,0,211.2917,211.2917,81.1956,2.3922,1010.7,1.69,-999.0,yes,yes,no,300534062835800,GPS_Tracker,AWI,Polarstern,North
2022-07-30T07:59:57Z,2022,8,0,211.3333,211.3333,81.1907,2.4078,1011.0,1.62,-999.0,yes,yes,no,300534062835800,GPS_Tracker,AWI,Polarstern,North
2022-07-30T09:00:00Z,2022,9,0,211.375,211.375,81.1854,2.4067,1011.2,1.93,-999.0,yes,yes,no,300534062835800,GPS_Tracker,AWI,Polarstern,North
2022-07-30T10:00:02Z,2022,10,0,211.4167,211.4167,81.1812,2.3932,1011.5,2.27,-999.0,yes,yes,no,300534062835800,GPS_Tracker,AWI,Polarstern,North
2022-07-30T10:59:57Z,2022,11,0,211.4583,211.4583,81.1779,2.3705,1011.9,2.37,-999.0,yes,yes,no,300534062835800,GPS_Tracker,AWI,Polarstern,North
2022-07-30T12:00:00Z,2022,12,0,211.5,211.5,81.1749,2.344,1011.9,2.3,-999.0,yes,yes,no,300534062835800,GPS_Tracker,AWI,Polarstern,North
2022-07-30T13:00:02Z,2022,13,0,211.5417,211.5417,81.1732,2.3131,1012.1,2.2,-999.0,yes,yes,no,300534062835800,GPS_Tracker,AWI,Polarstern,North
2022-07-30T13:59:57Z,2022,14,0,211.5833,211.5833,81.1729,2.2856,1012.2,2.27,-999.0,yes,yes,no,300534062835800,GPS_Tracker,AWI,Polarstern,North
2022-07-30T15:00:00Z,2022,15,0,211.625,211.625,81.1732,2.2584,1012.1,2.35,-999.0,yes,yes,no,300534062835800,GPS_Tracker,AWI,Polarstern,North
2022-07-30T16:00:02Z,2022,16,0,211.6667,211.6667,81.1562,2.4131,1012.3,2.61,-999.0,yes,yes,no,300534062835800,GPS_Tracker,AWI,Polarstern,North
2022-07-30T16:59:57Z,2022,17,0,211.7083,211.7083,81.1128,2.8366,1012.5,2.59,-999.0,yes,yes,no,300534062835800,GPS_Tracker,AWI,Polarstern,North
2022-07-30T18:00:00Z,2022,18,0,211.75,211.75,81.0658,3.2174,1012.7,2.33,-999.0,yes,yes,no,300534062835800,GPS_Tracker,AWI,Polarstern,North
2022-07-30T19:00:02Z,2022,19,0,211.7917,211.7917,80.9855,3.5044,1012.7,2.1,-999.0,yes,yes,no,300534062835800,GPS_Tracker,AWI,Polarstern,North
2022-07-30T19:59:57Z,2022,20,0,211.8333,211.8333,80.9061,3.7868,1013.0,2.0,-999.0,yes,yes,no,300534062835800,GPS_Tracker,AWI,Polarstern,North
2022-07-30T21:00:00Z,2022,21,0,211.875,211.875,80.8246,4.0722,1013.4,2.07,-999.0,yes,yes,no,300534062835800,GPS_Tracker,AWI,Polarstern,North
2022-07-30T22:00:02Z,2022,22,0,211.9167,211.9167,80.7416,4.3695,1013.9,1.91,-999.0,yes,yes,no,300534062835800,GPS_Tracker,AWI,Polarstern,North
2022-07-30T22:59:57Z,2022,23,0,211.9583,211.9146,80.7416,4.3695,1014.4,1.86,-999.0,yes,yes,no,300534062835800,GPS_Tracker,AWI,Polarstern,North
2022-07-31T00:00:00Z,2022,0,0,212.0,212.0,80.661,4.6764,1014.7,1.9,-999.0,yes,yes,no,300534062835800,GPS_Tracker,AWI,Polarstern,North
2022-07-31T01:00:02Z,2022,1,0,212.0417,212.0417,80.7126,4.504,1015.1,1.81,-999.0,yes,yes,no,300534062835800,GPS_Tracker,AWI,Polarstern,North
2022-07-31T01:59:57Z,2022,2,0,212.0833,212.0833,80.7283,4.4814,1015.5,1.84,-999.0,yes,yes,no,300534062835800,GPS_Tracker,AWI,Polarstern,North
2022-07-31T03:00:00Z,2022,3,0,212.125,212.125,80.7198,4.46,1016.0,1.76,-999.0,yes,yes,no,300534062835800,GPS_Tracker,AWI,Polarstern,North
2022-07-31T04:00:02Z,2022,4,0,212.1667,212.1667,80.7221,4.5362,1016.2,1.72,-999.0,yes,yes,no,300534062835800,GPS_Tracker,AWI,Polarstern,North
2022-07-31T04:59:57Z,2022,5,0,212.2083,212.2083,80.7225,4.4954,1016.6,1.76,-999.0,yes,yes,no,300534062835800,GPS_Tracker,AWI,Polarstern,North
2022-07-31T06:00:00Z,2022,6,0,212.25,212.25,80.7187,4.478,1017.0,1.97,-999.0,yes,yes,no,300534062835800,GPS_Tracker,AWI,Polarstern,North
2022-07-31T07:00:02Z,2022,7,0,212.2917,212.2917,80.7182,4.5554,1017.3,1.9,-999.0,yes,yes,no,300534062835800,GPS_Tracker,AWI,Polarstern,North
2022-07-31T07:59:57Z,2022,8,0,212.3333,212.3333,80.7129,4.6056,1017.7,2.02,-999.0,yes,yes,no,300534062835800,GPS_Tracker,AWI,Polarstern,North
2022-07-31T09:00:00Z,2022,9,0,212.375,212.375,80.7664,4.3415,1018.1,2.05,-999.0,yes,yes,no,300534062835800,GPS_Tracker,AWI,Polarstern,North
2022-07-31T10:00:02Z,2022,10,0,212.4167,212.4167,80.8576,4.0131,1018.7,1.99,-999.0,yes,yes,no,300534062835800,GPS_Tracker,AWI,Polarstern,North
2022-07-31T10:59:57Z,2022,11,0,212.4583,212.4583,80.9335,3.8751,1019.1,2.06,-999.0,yes,yes,no,300534062835800,GPS_Tracker,AWI,Polarstern,North
2022-07-31T12:00:00Z,2022,12,0,212.5,212.5,80.9305,3.8698,1019.2,2.01,-999.0,yes,yes,no,300534062835800,GPS_Tracker,AWI,Polarstern,North
2022-07-31T13:00:02Z,2022,13,0,212.5417,212.5417,80.928,3.8297,1019.0,2.14,-999.0,yes,yes,no,300534062835800,GPS_Tracker,AWI,Polarstern,North
2022-07-31T13:59:57Z,2022,14,0,212.5833,212.5833,80.9262,3.7963,1019.2,2.16,-999.0,yes,yes,no,300534062835800,GPS_Tracker,AWI,Polarstern,North
2022-07-31T15:00:00Z,2022,15,0,212.625,212.5812,80.9262,3.7963,1019.3,2.19,-999.0,yes,yes,no,300534062835800,GPS_Tracker,AWI,Polarstern,North
2022-07-31T16:00:02Z,2022,16,0,212.6667,212.6667,80.9495,3.5363,1019.5,1.97,-999.0,yes,yes,no,300534062835800,GPS_Tracker,AWI,Polarstern,North
2022-07-31T16:59:57Z,2022,17,0,212.7083,212.7083,81.0212,3.0566,1019.4,2.01,-999.0,yes,yes,no,300534062835800,GPS_Tracker,AWI,Polarstern,North
2022-07-31T18:00:00Z,2022,18,0,212.75,212.75,81.0686,2.4403,1019.6,2.19,-999.0,yes,yes,no,300534062835800,GPS_Tracker,AWI,Polarstern,North
2022-07-31T19:00:02Z,2022,19,0,212.7917,212.7917,81.0737,2.1825,1019.8,2.22,-999.0,yes,yes,no,300534062835800,GPS_Tracker,AWI,Polarstern,North
2022-07-31T19:59:57Z,2022,20,0,212.8333,212.8333,81.0715,2.1595,1020.0,1.96,-999.0,yes,yes,no,300534062835800,GPS_Tracker,AWI,Polarstern,North
2022-07-31T21:00:00Z,2022,21,0,212.875,212.875,81.069,2.1378,1020.1,1.83,-999.0,yes,yes,no,300534062835800,GPS_Tracker,AWI,Polarstern,North
2022-07-31T22:00:02Z,2022,22,0,212.9167,212.9167,81.0666,2.1151,1020.2,1.85,-999.0,yes,yes,no,300534062835800,GPS_Tracker,AWI,Polarstern,North
2022-07-31T22:59:57Z,2022,23,0,212.9583,212.9583,81.0648,2.093,1020.2,1.76,-999.0,yes,yes,no,300534062835800,GPS_Tracker,AWI,Polarstern,North
2022-08-01T00:00:00Z,2022,0,0,213.0,213.0,81.0642,2.0733,1020.2,1.76,-999.0,yes,yes,no,300534062835800,GPS_Tracker,AWI,Polarstern,North
2022-08-01T01:00:02Z,2022,1,0,213.0417,213.0417,81.0649,2.0588,1020.1,1.73,-999.0,yes,yes,no,300534062835800,GPS_Tracker,AWI,Polarstern,North
2022-08-01T01:59:57Z,2022,2,0,213.0833,213.0833,81.0553,2.1271,1020.1,1.77,-999.0,yes,yes,no,300534062835800,GPS_Tracker,AWI,Polarstern,North
2022-08-01T03:00:00Z,2022,3,0,213.125,213.125,80.9959,2.6215,1020.0,1.53,-999.0,yes,yes,no,300534062835800,GPS_Tracker,AWI,Polarstern,North
2022-08-01T04:00:02Z,2022,4,0,213.1667,213.1667,80.937,3.0834,1019.9,1.58,-999.0,yes,yes,no,300534062835800,GPS_Tracker,AWI,Polarstern,North
2022-08-01T04:59:57Z,2022,5,0,213.2083,213.2083,80.8704,3.5903,1019.8,1.71,-999.0,yes,yes,no,300534062835800,GPS_Tracker,AWI,Polarstern,North
2022-08-01T06:00:00Z,2022,6,0,213.25,213.25,80.7981,4.0889,1019.8,1.94,-999.0,yes,yes,no,300534062835800,GPS_Tracker,AWI,Polarstern,North
2022-08-01T07:00:02Z,2022,7,0,213.2917,213.2917,80.7688,4.2922,1019.8,1.79,-999.0,yes,yes,no,300534062835800,GPS_Tracker,AWI,Polarstern,North
2022-08-01T07:59:57Z,2022,8,0,213.3333,213.3333,80.7682,4.3038,1019.9,1.84,-999.0,yes,yes,no,300534062835800,GPS_Tracker,AWI,Polarstern,North
2022-08-01T09:00:00Z,2022,9,0,213.375,213.375,80.7674,4.2954,1019.9,2.19,-999.0,yes,yes,no,300534062835800,GPS_Tracker,AWI,Polarstern,North
2022-08-01T10:00:02Z,2022,10,0,213.4167,213.4167,80.7675,4.2833,1019.9,2.25,-999.0,yes,yes,no,300534062835800,GPS_Tracker,AWI,Polarstern,North
2022-08-01T10:59:57Z,2022,11,0,213.4583,213.4583,80.7642,4.2647,1019.9,2.12,-999.0,yes,yes,no,300534062835800,GPS_Tracker,AWI,Polarstern,North
2022-08-01T12:00:00Z,2022,12,0,213.5,213.5,80.7606,4.231,1019.6,2.36,-999.0,yes,yes,no,300534062835800,GPS_Tracker,AWI,Polarstern,North
2022-08-01T13:00:02Z,2022,13,0,213.5417,213.5417,80.756,4.2405,1019.5,2.17,-999.0,yes,yes,no,300534062835800,GPS_Tracker,AWI,Polarstern,North
2022-08-01T13:59:57Z,2022,14,0,213.5833,213.5833,80.7689,4.8599,1019.4,2.21,-999.0,yes,yes,no,300534062835800,GPS_Tracker,AWI,Polarstern,North
2022-08-01T15:00:00Z,2022,15,0,213.625,213.625,80.7677,5.5776,1019.2,1.87,-999.0,yes,yes,no,300534062835800,GPS_Tracker,AWI,Polarstern,North
2022-08-01T16:00:02Z,2022,16,0,213.6667,213.6667,80.767,6.2782,1018.6,1.85,-999.0,yes,yes,no,300534062835800,GPS_Tracker,AWI,Polarstern,North
2022-08-01T16:59:57Z,2022,17,0,213.7083,213.7083,80.786,6.8399,1018.5,1.65,-999.0,yes,yes,no,300534062835800,GPS_Tracker,AWI,Polarstern,North
2022-08-01T18:00:00Z,2022,18,0,213.75,213.75,80.718,6.2561,1018.4,1.81,-999.0,yes,yes,no,300534062835800,GPS_Tracker,AWI,Polarstern,North
2022-08-01T19:00:02Z,2022,19,0,213.7917,213.7917,80.6525,5.7112,1018.2,1.76,-999.0,yes,yes,no,300534062835800,GPS_Tracker,AWI,Polarstern,North
2022-08-01T19:59:57Z,2022,20,0,213.8333,213.8333,80.596,5.4145,1017.9,1.47,-999.0,yes,yes,no,300534062835800,GPS_Tracker,AWI,Polarstern,North
2022-08-01T21:00:00Z,2022,21,0,213.875,213.875,80.6635,5.2587,1017.9,1.32,-999.0,yes,yes,no,300534062835800,GPS_Tracker,AWI,Polarstern,North
2022-08-01T22:00:02Z,2022,22,0,213.9167,213.9167,80.7661,4.996,1018.0,1.16,-999.0,yes,yes,no,300534062835800,GPS_Tracker,AWI,Polarstern,North
2022-08-01T22:59:57Z,2022,23,0,213.9583,213.9583,80.7706,4.9252,1017.7,1.23,-999.0,yes,yes,no,300534062835800,GPS_Tracker,AWI,Polarstern,North
2022-08-02T00:00:00Z,2022,0,0,214.0,214.0,80.7683,5.2998,1017.4,1.2,-999.0,yes,yes,no,300534062835800,GPS_Tracker,AWI,Polarstern,North
2022-08-02T01:00:02Z,2022,1,0,214.0417,214.0417,80.7733,5.3352,1016.9,1.35,-999.0,yes,yes,no,300534062835800,GPS_Tracker,AWI,Polarstern,North
2022-08-02T01:59:57Z,2022,2,0,214.0833,214.0833,80.7665,5.6668,1016.4,1.25,-999.0,yes,yes,no,300534062835800,GPS_Tracker,AWI,Polarstern,North
2022-08-02T03:00:00Z,2022,3,0,214.125,214.125,80.7638,5.9369,1016.2,1.13,-999.0,yes,yes,no,300534062835800,GPS_Tracker,AWI,Polarstern,North
2022-08-02T04:00:02Z,2022,4,0,214.1667,214.1667,80.7655,6.0074,1015.9,1.15,-999.0,yes,yes,no,300534062835800,GPS_Tracker,AWI,Polarstern,North
2022-08-02T04:59:57Z,2022,5,0,214.2083,214.2083,80.7663,6.3348,1015.5,1.08,-999.0,yes,yes,no,300534062835800,GPS_Tracker,AWI,Polarstern,North
2022-08-02T06:00:00Z,2022,6,0,214.25,214.25,80.7661,6.6599,1015.2,1.17,-999.0,yes,yes,no,300534062835800,GPS_Tracker,AWI,Polarstern,North
2022-08-02T07:00:02Z,2022,7,0,214.2917,214.2917,80.7673,6.6797,1015.1,1.42,-999.0,yes,yes,no,300534062835800,GPS_Tracker,AWI,Polarstern,North
2022-08-02T07:59:57Z,2022,8,0,214.3333,214.3333,80.6724,7.0964,1014.5,1.37,-999.0,yes,yes,no,300534062835800,GPS_Tracker,AWI,Polarstern,North
2022-08-02T09:00:00Z,2022,9,0,214.375,214.375,80.5743,7.3856,1014.1,1.71,-999.0,yes,yes,no,300534062835800,GPS_Tracker,AWI,Polarstern,North
2022-08-02T10:00:02Z,2022,10,0,214.4167,214.4167,80.5461,7.0654,1014.0,1.65,-999.0,yes,yes,no,300534062835800,GPS_Tracker,AWI,Polarstern,North
2022-08-02T10:59:57Z,2022,11,0,214.4583,214.4583,80.5373,6.997,1013.8,1.77,-999.0,yes,yes,no,300534062835800,GPS_Tracker,AWI,Polarstern,North
2022-08-02T12:00:00Z,2022,12,0,214.5,214.5,80.5328,6.9365,1013.5,2.02,-999.0,yes,yes,no,300534062835800,GPS_Tracker,AWI,Polarstern,North
2022-08-02T13:00:02Z,2022,13,0,214.5417,214.5417,80.3992,6.4014,1013.3,2.6,-999.0,yes,yes,no,300534062835800,GPS_Tracker,AWI,Polarstern,North
2022-08-02T13:59:57Z,2022,14,0,214.5833,214.5833,80.2601,5.8071,1012.7,3.11,-999.0,yes,yes,no,300534062835800,GPS_Tracker,AWI,Polarstern,North
2022-08-02T15:00:00Z,2022,15,0,214.625,214.625,80.1193,5.2149,1012.6,3.39,-999.0,yes,yes,no,300534062835800,GPS_Tracker,AWI,Polarstern,North
2022-08-02T16:00:02Z,2022,16,0,214.6667,214.6667,79.9778,4.6257,1011.9,3.7,-999.0,yes,yes,no,300534062835800,GPS_Tracker,AWI,Polarstern,North
2022-08-02T16:59:57Z,2022,17,0,214.7083,214.7083,79.8386,4.0578,1011.6,3.67,-999.0,yes,yes,no,300534062835800,GPS_Tracker,AWI,Polarstern,North
2022-08-02T18:00:00Z,2022,18,0,214.75,214.75,79.6952,3.478,1011.5,3.5,-999.0,yes,yes,no,300534062835800,GPS_Tracker,AWI,Polarstern,North
2022-08-02T19:00:02Z,2022,19,0,214.7917,214.7917,79.5555,2.922,1011.5,3.55,-999.0,yes,yes,no,300534062835800,GPS_Tracker,AWI,Polarstern,North
2022-08-02T19:59:57Z,2022,20,0,214.8333,214.8333,79.4373,2.223,1011.6,3.07,-999.0,yes,yes,no,300534062835800,GPS_Tracker,AWI,Polarstern,North
2022-08-02T21:00:00Z,2022,21,0,214.875,214.875,79.3263,1.4944,1011.6,2.55,-999.0,yes,yes,no,300534062835800,GPS_Tracker,AWI,Polarstern,North
2022-08-02T22:00:02Z,2022,22,0,214.9167,214.9167,79.2165,0.7925,1011.9,1.41,-999.0,yes,yes,no,300534062835800,GPS_Tracker,AWI,Polarstern,North
2022-08-02T22:59:57Z,2022,23,0,214.9583,214.9583,79.1477,0.3361,1011.9,0.91,-999.0,yes,yes,no,300534062835800,GPS_Tracker,AWI,Polarstern,North
2022-08-03T00:00:00Z,2022,0,0,215.0,215.0,79.0838,-0.0609,1011.9,0.72,-999.0,yes,yes,no,300534062835800,GPS_Tracker,AWI,Polarstern,North
2022-08-03T01:00:02Z,2022,1,0,215.0417,215.0417,79.0303,-0.4018,1011.7,0.56,-999.0,yes,yes,no,300534062835800,GPS_Tracker,AWI,Polarstern,North
2022-08-03T01:59:57Z,2022,2,0,215.0833,215.0833,79.0013,-0.9161,1011.8,0.36,-999.0,yes,yes,no,300534062835800,GPS_Tracker,AWI,Polarstern,North
2022-08-03T03:00:00Z,2022,3,0,215.125,215.125,79.0,-1.4782,1011.9,0.38,-999.0,yes,yes,no,300534062835800,GPS_Tracker,AWI,Polarstern,North
2022-08-03T04:00:02Z,2022,4,0,215.1667,215.1667,79.0039,-2.0482,1011.7,0.56,-999.0,yes,yes,no,300534062835800,GPS_Tracker,AWI,Polarstern,North
2022-08-03T04:59:57Z,2022,5,0,215.2083,215.2083,79.0038,-2.5947,1011.9,0.65,-999.0,yes,yes,no,300534062835800,GPS_Tracker,AWI,Polarstern,North
2022-08-03T06:00:00Z,2022,6,0,215.25,215.25,79.0066,-3.1115,1012.1,0.67,-999.0,yes,yes,no,300534062835800,GPS_Tracker,AWI,Polarstern,North
2022-08-03T07:00:02Z,2022,7,0,215.2917,215.2917,78.9867,-3.4531,1012.4,0.92,-999.0,yes,yes,no,300534062835800,GPS_Tracker,AWI,Polarstern,North
2022-08-03T07:59:57Z,2022,8,0,215.3333,215.3333,78.9819,-3.7982,1012.7,0.96,-999.0,yes,yes,no,300534062835800,GPS_Tracker,AWI,Polarstern,North
2022-08-03T09:00:00Z,2022,9,0,215.375,215.375,78.9589,-4.1901,1012.8,1.01,-999.0,yes,yes,no,300534062835800,GPS_Tracker,AWI,Polarstern,North
2022-08-03T10:00:02Z,2022,10,0,215.4167,215.4167,78.9451,-4.5259,1013.0,1.09,-999.0,yes,yes,no,300534062835800,GPS_Tracker,AWI,Polarstern,North
2022-08-03T10:59:57Z,2022,11,0,215.4583,215.4583,78.9246,-5.0077,1013.3,1.11,-999.0,yes,yes,no,300534062835800,GPS_Tracker,AWI,Polarstern,North
2022-08-03T12:00:00Z,2022,12,0,215.5,215.5,78.9764,-5.422,1013.7,1.13,-999.0,yes,yes,no,300534062835800,GPS_Tracker,AWI,Polarstern,North
2022-08-03T13:00:02Z,2022,13,0,215.5417,215.5417,78.9871,-5.3559,1013.5,1.24,-999.0,yes,yes,no,300534062835800,GPS_Tracker,AWI,Polarstern,North
2022-08-03T13:59:57Z,2022,14,0,215.5833,215.5833,78.9837,-5.3909,1013.4,1.36,-999.0,yes,yes,no,300534062835800,GPS_Tracker,AWI,Polarstern,North
2022-08-03T15:00:00Z,2022,15,0,215.625,215.625,78.9823,-5.4399,1013.4,1.59,-999.0,yes,yes,no,300534062835800,GPS_Tracker,AWI,Polarstern,North
2022-08-03T16:00:02Z,2022,16,0,215.6667,215.6667,79.0015,-5.3395,1013.3,1.51,-999.0,yes,yes,no,300534062835800,GPS_Tracker,AWI,Polarstern,North